Location: Newark
(51.2625°N, 13.3939°E)
Time: 15:16:23
(UTC+00:00)

deb Explorer IX - Pass Details

Date: 19 November 2019
Orbit: 546 x 1104 km, 38.8° (Epoch: 14 December)

Event Time Altitude Azimuth Distance (km) Brightness Sun altitude
Rises 04:00:23 0° 256° (WSW) 3,339 - -22.9°
Reaches altitude 10° 04:04:01 10° 235° (SW) 2,276 - -22.4°
Exits shadow 04:06:51 15° 202° (SSW) 1,845 ? -21.9°
Maximum altitude 04:06:59 15° 200° (SSW) 1,839 ? -21.9°
Drops below altitude 10° 04:09:45 10° 165° (SSE) 2,077 ? -21.5°
Sets 04:12:50 0° 142° (SE) 2,888 ? -21.0°
